Weather History for Fairbanks Ft. Wainwright, AK

Change the Weather History Date:

Tuesday, March 5, 2013

  Actual Average Record
Temperature  
Mean Temperature 10 °F -  
Max Temperature 24 °F 16 °F 44 °F (2008)
Min Temperature -4 °F -2 °F -27 °F (1999)
Degree Days  
Heating Degree Days 55    
Moisture  
Dew Point 0 °F    
Average Humidity 77    
Maximum Humidity 87    
Minimum Humidity 54    
Precipitation  
Precipitation 0.00 in - - ()
Snow  
Snow 0.00 in - - ()
Snow Depth 21.00 in    
Sea Level Pressure  
Sea Level Pressure 30.12 in    
Wind  
Wind Speed 1 mph (SW)    
Max Wind Speed 4 mph    
Max Gust Speed -    
Visibility 9 miles    
Events      
Averages and records for this station are not official NWS values.
T = Trace of Precipitation, MM = Missing Value Source: NWS Daily Summary

Daily Weather History Graph

Daily Weather History Graph

Search for Another Location

Airport:

Trip Planner

Search our weather history database for the weather conditions in past years. The results will help you decide how hot, cold, wet, or windy it might be!

Date:

Astronomy

Mar. 05, 2013 Rise Set
Actual Time 7:43 AM AKST 6:21 PM AKST
Civil Twilight 6:54 AM AKST 7:10 PM AKST
Nautical Twilight 5:58 AM AKST 8:07 PM AKST
Astronomical Twilight 4:58 AM AKST 9:07 PM AKST
Moon 5:01 AM AKST (3/5) 10:14 AM AKST (3/5)
Length of Visible Light 12h 15m
Length of Day
10h 37m
Last Quarter, 39% of the Moon is Illuminated
Mar 5
Last Quarter
Mar 11
New
Mar 19
First Quarter
Mar 27
Full
Apr 2
Last Quarter

Hourly Weather History & Observations

Time (AKST) Temp. Windchill Dew Point Humidity Pressure Visibility Wind Dir Wind Speed Gust Speed Precip Events Conditions
12:56 AM -0.9 °F - -5.1 °F 83% 30.30 in 10.0 mi Calm Calm - N/A   Clear
1:56 AM 1.9 °F -5.6 °F -2.0 °F 83% 30.29 in 10.0 mi SE 3.5 mph - N/A   Clear
2:56 AM 1.0 °F - -4.0 °F 79% 30.28 in 10.0 mi Calm Calm - N/A   Clear
3:56 AM -0.0 °F - -5.1 °F 79% 30.26 in 10.0 mi Calm Calm - N/A   Clear
4:56 AM -0.0 °F - -5.1 °F 79% 30.25 in 10.0 mi Calm Calm - N/A   Clear
5:56 AM -2.9 °F - -7.1 °F 82% 30.23 in 10.0 mi Calm Calm - N/A   Clear
6:26 AM -4.0 °F - -9.4 °F 78% 30.18 in 7.0 mi Calm Calm - N/A   Partly Cloudy
6:55 AM -0.4 °F - -5.8 °F 78% 30.22 in 7.0 mi ENE 2.3 mph - N/A   Scattered Clouds
7:55 AM -2.2 °F - -7.6 °F 78% 30.21 in 7.0 mi Calm Calm - N/A   Mostly Cloudy
8:55 AM -2.2 °F - -7.6 °F 78% 30.20 in 10.0 mi Calm Calm - N/A   Mostly Cloudy
9:55 AM 1.4 °F - -2.2 °F 85% 30.18 in 10.0 mi Calm Calm - N/A   Scattered Clouds
10:55 AM 3.2 °F - -0.4 °F 85% 30.17 in 10.0 mi Calm Calm - N/A   Scattered Clouds
11:55 AM 8.6 °F - 5.0 °F 85% 30.15 in 10.0 mi Calm Calm - N/A   Mostly Cloudy
12:55 PM 17.6 °F - 8.6 °F 68% 30.13 in 10.0 mi Calm Calm - N/A   Mostly Cloudy
1:55 PM 15.8 °F - 8.6 °F 73% 30.11 in 10.0 mi Calm Calm - N/A   Mostly Cloudy
2:55 PM 23.0 °F - 8.6 °F 54% 30.07 in 10.0 mi WSW 2.3 mph - N/A   Scattered Clouds
3:55 PM 24.8 °F - 10.4 °F 54% 30.05 in 10.0 mi West 2.3 mph - N/A   Scattered Clouds
4:55 PM 17.6 °F - 8.6 °F 68% 30.03 in 10.0 mi WSW 2.3 mph - N/A   Partly Cloudy
5:55 PM 14.0 °F - 5.0 °F 67% 30.02 in 10.0 mi Calm Calm - N/A   Partly Cloudy
6:55 PM 12.2 °F - 5.0 °F 73% 30.01 in 10.0 mi Calm Calm - N/A   Scattered Clouds
7:55 PM 12.2 °F - 8.6 °F 85% 29.98 in 7.0 mi Calm Calm - N/A   Partly Cloudy
8:55 PM 6.8 °F - 1.4 °F 79% 29.99 in 7.0 mi Calm Calm - N/A   Partly Cloudy
9:55 PM 3.2 °F - -0.4 °F 85% 29.97 in 7.0 mi Calm Calm - N/A   Partly Cloudy
10:55 PM 3.2 °F - -0.4 °F 85% 29.98 in 7.0 mi Calm Calm - N/A   Scattered Clouds
10:56 PM 3.0 °F - -0.0 °F 87% 29.98 in 10.0 mi Calm Calm - N/A   Clear
11:55 PM -0.4 °F - -5.8 °F 78% 29.96 in 7.0 mi Calm Calm - N/A   Scattered Clouds
11:56 PM -2.0 °F -10.1 °F -6.0 °F 83% 29.96 in 10.0 mi West 3.5 mph - N/A   Clear